遥感四十三号01组-B (YAOGAN-43 O1B)

导读

YAOGAN-43 O1B(遥感四十三号01组卫星)是中国于北京时间2024年8月16日15时35分发射的低轨试验卫星,发射地点为西昌卫星发射中心,承载运载工具为长征四号乙运载火箭,发射任务取得圆满成功,卫星顺利进入预定轨道。该卫星主要用于开展低轨星座系统新技术试验,是中国长征系列运载火箭第531次飞行任务,对中国低轨星座技术发展具备重要试验意义。

基本信息
目录编号:
60459
目录名称:
YAOGAN-43 O1B
国际标识:
2024-148B
轨道中心:
EARTH
卫星名称:
遥感四十三号01组-B (YAOGAN-43 O1B)
卫星全名:
遥感四十三号01组-B (YAOGAN-43 O1B)
卫星状态:
在轨 (已飞行756 天)
发射日期:
2024-08-16 UTC
国别 :
中国 (CN)
星等 :
--
该卫星已列入 空间交会检测服务 Space Conjunction Data Service (SCDS) ,当前飞行风险评估等级: 无高风险
轨道信息
数据来源 国际轨道数据 AOE轨道数据
星历时间 2026-09-10T21:39:24+0800
16小时前
查看轨道信息
2026-09-06T02:00:00+0800
5天前
查看轨道信息
半长轴 6831.048km 6831.289km
偏心率 0.0007941 0.0007855
轨道倾角 34.993° 34.993°
近地点辐角 272.099° 230.470°
升交点赤经 305.659° 336.652°
平近点角 87.882° 49.077°
近地点 447.486km 447.786km
远地点 458.336km 458.518km
周期 93.646分钟 93.651分钟
每日圈数 15.377006 15.376192
详细信息
运营商:
中国空间技术研究院
运营商所在国:
中国
制造商(研发单位):
中国空间技术研究院
制造商所在国:
中国
使用方式:
暂无
卫星简介
遥感四十三号卫星组分别由航天科技集团五院和八院等抓总研制,主要用于开展低轨星座系统新技术试验。
2D轨道图
3D轨道图
轨道高度分析图
轨道倾角分析图
轨道综合分析图
查看轨道综合分析图
与全量物体交会距离演化趋势
与全量物体交会风险概率演化趋势